Regional Weather Roundup
Issued by NWS Little Rock, AR

Home | Current Version | Previous Version | Graphics & Text | Print | Product List | Glossary On
Versions: 1 2 3 4 5 6 7 8 9 10 11 12 13 14 15 16 17 18 19 20 21 22 23 24 25 26 27 28 29 30 31 32 33 34 35 36 37 38 39 40 41 42 43 44 45 46 47 48 49 50
000
ASUS44 KLZK 030305
RWRLZK

WEATHER ROUNDUP FOR ARKANSAS
NATIONAL WEATHER SERVICE LITTLE ROCK AR
1000 PM CDT THU JUL 02 2015

NOTE: "FAIR" INDICATES FEW OR NO CLOUDS BELOW 12,000 FEET WITH NO
SIGNIFICANT WEATHER AND/OR OBSTRUCTIONS TO VISIBILITY.

ARZ001-003-010-029-030400-
NORTHWEST ARKANSAS

CITY           SKY/WX    TMP DP  RH WIND       PRES   REMARKS
FAYETTEVILLE   LGT RAIN  69  68  96 S8        29.95S
FORT SMITH     TSTM      78  73  84 N8        29.91R
HARRISON       CLOUDY    70  66  87 SW3       29.92R
BENTONVILLE    CLOUDY    70  64  83 W8        29.94S
ROGERS         CLOUDY    70  67  90 W7        29.94S
SILOAM SPGS    CLOUDY    68  61  77 CALM        N/A
HIGHFILL       CLOUDY    69  67  93 W7        29.94S
$$

ARZ004-005-016-030400-
NORTH CENTRAL ARKANSAS

CITY           SKY/WX    TMP DP  RH WIND       PRES   REMARKS
BATESVILLE     CLOUDY    72  68  88 SW3       29.87F
FLIPPIN        CLOUDY    73  66  78 SW3       29.87S
MTN HOME       CLOUDY    70  67  90 CALM      29.89R
$$

ARZ040-041-030400-
WEST CENTRAL ARKANSAS

CITY           SKY/WX    TMP DP  RH WIND       PRES   REMARKS
MENA           CLOUDY    82  72  69 SW8       29.95R HX  87
MOUNT IDA      CLOUDY    82  69  64 CALM      29.91R HX  85
$$

ARZ009-017-025-026-028-030400-
NORTHEAST ARKANSAS

CITY           SKY/WX    TMP DP  RH WIND       PRES   REMARKS
JONESBORO      TSTM      69  68  96 W9        29.95R FOG
NEWPORT        TSTM      72  70  93 N9        29.93R
WALNUT RIDGE   CLOUDY    72  66  83 S13       29.87S
BLYTHEVILLE    LGT RAIN  74  70  87 W7        29.87R
$$

ARZ022-023-033-042-044-030400-
CENTRAL ARKANSAS

CITY           SKY/WX    TMP DP  RH WIND       PRES   REMARKS
LITTLE ROCK    CLOUDY    83  67  58 SW8       29.90R HX  85
N LITTLE ROCK  CLOUDY    82  72  70 SW7G18    29.90R HX  87
JACKSONVILLE   CLOUDY    83  70  64 SW10      29.89R HX  87
SEARCY         CLOUDY    83  70  64 N9        29.91R HX  87
HOT SPRINGS    CLOUDY    81  70  69 W3        29.93R
RUSSELLVILLE   CLOUDY    80  69  69 N12G20    29.92R
CLINTON        LGT RAIN  72  70  94 CALM      29.92R
$$

ARZ036-030400-
EAST ARKANSAS

CITY           SKY/WX    TMP DP  RH WIND       PRES   REMARKS
WEST MEMPHIS   CLOUDY    82  71  69 SW6       29.87R HX  86
$$

ARZ050-053-066-070-073-030400-
SOUTHWEST ARKANSAS

CITY           SKY/WX    TMP DP  RH WIND       PRES   REMARKS
ARKADELPHIA    FAIR      80  75  84 CALM      29.92R HX  85
CAMDEN         CLOUDY    81  72  74 MISG      29.93R
TEXARKANA      MOCLDY    81  73  76 SW6       29.93R HX  86
EL DORADO      MOCLDY    78  72  81 SW3       29.94R
DE QUEEN       CLOUDY    80  72  76 CALM      29.90R
$$

ARZ056-057-069-030400-
SOUTHEAST ARKANSAS

CITY           SKY/WX    TMP DP  RH WIND       PRES   REMARKS
PINE BLUFF     MOCLDY    80  72  76 SW6       29.91R
STUTTGART      CLOUDY    81  72  74 MISG      29.89R
MONTICELLO     CLOUDY    82  74  76 SW6       29.93R HX  88

$$





USA.gov is the U.S. government's official web portal to all federal, state and local government web resources and services.